Tracking 27124 objects as of 31-Mar-2023
HD Live streaming from Space Station
objects crossing your sky now

SL-8 DEB

Track SL-8 DEB now!
10-day predictions


NORAD ID: 39699
Int'l Code: 1991-009DN
Perigee: 1,495.6 km
Apogee: 1,729.7 km
Inclination: 74.1 °
Period: 118.3 minutes
Semi major axis: 7983 km
RCS: 0.0155 m2 (small)
Launch date: February 12, 1991
Source: Commonwealth of Independent States (former USSR) (CIS)
Launch site: PLESETSK MISSILE AND SPACE COMPLEX (PKMTR)

Note: This is SATELLITE DEBRIS
Your satellite tracking list
Your tracking list is empty




NASA's NSSDC Master Catalog

Two Line Element Set (TLE):
1 39699U 91009DN  23085.23532663  .00000039  00000-0  51825-3 0  9999
2 39699  74.1010  23.9309 0146582 219.9559 139.0614 12.17026856397105
Source of the keplerian elements: AFSPC